Location: Berua Church
(35.0423°N, 88.5987°W)
Time: 02:54:41
(UTC+00:00)

Cosmos 676 Rocket - Pass Details

Date: 08 December 2019
Orbit: 754 x 785 km, 74.0° (Epoch: 28 January)

Event Time Altitude Azimuth Distance (km) Brightness Sun altitude
Exits shadow 12:00:22 - 331° (NNW) 2,772 6.4 -10.1°
Reaches altitude 10° 12:01:36 10° 328° (NNW) 2,313 6.0 -9.8°
Maximum altitude 12:06:31 42° 258° (WSW) 1,096 4.4 -8.9°
Drops below altitude 10° 12:11:27 10° 189° (S) 2,318 6.7 -8.0°
Sets 12:13:56 0° 182° (S) 3,246 7.5 -7.5°
